Regional Weather Roundup
Issued by NWS

Home | Current Version | Previous Version | Text Only | Print | Product List | Glossary Off
Versions: 1 2 3 4 5 6 7 8 9 10 11 12 13 14 15 16 17 18 19 20 21 22 23 24 25 26 27 28 29 30 31 32 33 34 35 36 37 38 39 40 41 42 43 44 45 46 47 48 49 50

000
ASUS45 KABQ 241910
RWRNM
NEW MEXICO REGIONAL WEATHER ROUNDUP
NATIONAL WEATHER SERVICE ALBUQUERQUE NM
100 PM MDT SUN MAY 24 2015

NOTE: "FAIR" MEANS FEW OR NO CLOUDS BELOW 12,000 FEET AGL WITH NO
       SIGNIFICANT WEATHER OR OBSTRUCTIONS TO VISION.

      THIS PRODUCT IS RELEASED AS TWO VERSIONS.  ONE VERSION NEAR
      THE TOP OF THE HOUR CONTAINING PRELIMINARY DATA FROM ALBUQUERQUE
      AND OTHER STATIONS.  A FINAL VERSION WITH ADDITIONAL DATA IS
      ISSUED ABOUT 10 MINUTES AFTER THE HOUR.

NMZ501-503-504-510>518-242000-
NORTHWEST PLATEAU/NORTHCENTRAL MOUNTAINS

CITY           SKY/WX    TMP DP  RH WIND       PRES   REMARKS
FARMINGTON     CLOUDY    57  42  57 W9        29.98F
LOS ALAMOS     PTSUNNY   53  35  50 W5        30.03S
SANTA FE       CLOUDY    61  34  36 W18G26    29.98F
TAOS           CLOUDY    48  36  61 W10       30.03S
ANGEL FIRE     CLOUDY    46  36  69 W15G22    30.03R

$$
NMZ402-403-502-505>509-242000-
WESTCENTRAL MOUNTAINS/SOUTHWEST MOUNTAINS

CITY           SKY/WX    TMP DP  RH WIND       PRES   REMARKS
GALLUP         LGT RAIN  48  41  76 SW9       30.06R
GRANTS         CLOUDY    60  31  32 W9G25     30.03S HAZE
SILVER CITY      N/A     66  23  19 SW8       30.03F

$$
NMZ407-409-411-412-242000-
SOUTHERN DESERTS

CITY           SKY/WX    TMP DP  RH WIND       PRES   REMARKS
LORDSBURG      FAIR      70  28  21 SW9       29.97F
DEMING         SUNNY     73  26  17 W8G16     29.97F
LAS CRUCES     SUNNY     73  24  16 SW10G24   29.98F
HOLLOMAN AFB   MOSUNNY   75  25  15 SW12G20   29.92F
ALAMOGORDO     SUNNY     73  25  16 SW7       29.94F
T OR C         SUNNY     71  25  17 VRB6      29.93F

$$
NMZ519>523-242000-
CENTRAL VALLEYS/CENTRAL HIGHLANDS

CITY           SKY/WX    TMP DP  RH WIND       PRES   REMARKS
ALBUQUERQUE    PTSUNNY   66  33  29 VRB5      29.96F
DOUBLE EAGLE   PTSUNNY   61  36  39 VRB7      29.98F
MORIARTY ARPT  FAIR      65  31  28 W13G21    29.99F
CLINES CORNERS NOT AVBL
BELEN          CLOUDY    67  29  23 S5        29.95F
SOCORRO        FAIR      69  28  21 E7G16     29.94F

$$
NMZ524>526-539-540-242000-
SOUTHCENTRAL MOUNTAINS

CITY           SKY/WX    TMP DP  RH WIND       PRES   REMARKS
RUIDOSO        SUNNY     64  25  22 SW14G25   30.03F

$$
NMZ527>531-242000-
NORTHEAST HIGHLANDS/NORTHEAST PLAINS

CITY           SKY/WX    TMP DP  RH WIND       PRES   REMARKS
LAS VEGAS      MOSUNNY   62  34  35 SW23G30   29.94F
RATON          PTSUNNY   65  36  34 S12       29.88F
CLAYTON        PTSUNNY   71  47  42 S15G24    29.85F

$$
NMZ532>537-242000-
EASTCENTRAL PLAINS

CITY           SKY/WX    TMP DP  RH WIND       PRES   REMARKS
TUCUMCARI      MOSUNNY   74  37  26 SW8G20    29.83F
CANNON AFB     SUNNY     73  38  27 W8G18     29.88F
CLOVIS AIRPORT SUNNY     73  39  29 W7G18     29.85F

$$
NMZ028-029-538-242000-
SOUTHEAST PLAINS

CITY           SKY/WX    TMP DP  RH WIND       PRES   REMARKS
ROSWELL        SUNNY     79  24  13 VRB6      29.85F
ARTESIA        SUNNY     81  23  12 SW15G30   29.87F
CARLSBAD       SUNNY     82  29  14 W17G28    29.86F
HOBBS          SUNNY     77  32  19 SW9G16    29.90F


$$



USA.gov is the U.S. government's official web portal to all federal, state and local government web resources and services.